Fort Greely, AK

9:09 AM AKST on December 02, 2016 (GMT -0900)
Allen Army Air Field

Weather History for PABI - November, 2011

Change the Weather History Date:

Friday, November 4, 2011

  Actual Average Record
Temperature  
Mean Temperature 17 °F -  
Max Temperature 19 °F 19 °F 41 °F (2010)
Min Temperature 15 °F 7 °F -20 °F (1999)
Degree Days  
Heating Degree Days 48    
Moisture  
Dew Point 10 °F    
Average Humidity 76    
Maximum Humidity 93    
Minimum Humidity 57    
Precipitation  
Precipitation 0.04 in - - ()
Sea Level Pressure  
Sea Level Pressure 29.47 in    
Wind  
Wind Speed 18 mph (ESE)    
Max Wind Speed 28 mph    
Max Gust Speed 39 mph    
Visibility 6 miles    
Events Snow    
Averages and records for this station are not official NWS values.
T = Trace of Precipitation, MM = Missing Value Source: NWS Daily Summary

Daily Weather History Graph

Daily Weather History Graph

Search for Another Location

Airport or City:

Trip Planner

Search our weather history database for the weather conditions in past years. The results will help you decide how hot, cold, wet, or windy it might be!

Date:

Astronomy

Nov. 04, 2011 Rise Set
Actual Time 9:34 AM AKDT 5:17 PM AKDT
Civil Twilight 8:40 AM AKDT 6:11 PM AKDT
Nautical Twilight 7:43 AM AKDT 7:08 PM AKDT
Astronomical Twilight 6:47 AM AKDT 8:03 PM AKDT
Moon 3:51 PM AKDT (11/4) 2:03 AM AKDT (11/4)
Length of Visible Light 9h 30m
Length of Day
7h 42m
Waxing Gibbous, 71% of the Moon is Illuminated
Nov 4
Waxing Gibbous
Nov 10
Full
Nov 18
Last Quarter
Nov 24
New
Dec 2
First Quarter

Hourly Weather History & Observations

Time (AKDT) Temp. Windchill Dew Point Humidity Pressure Visibility Wind Dir Wind Speed Gust Speed Precip Events Conditions
12:53 AM 15.1 °F -3.3 °F 5.0 °F 64% 29.42 in 10.0 mi ESE 23.0 mph 33.4 mph N/A   Mostly Cloudy
1:53 AM 15.1 °F -4.4 °F 5.0 °F 64% 29.40 in 10.0 mi ESE 26.5 mph 32.2 mph N/A   Partly Cloudy
2:53 AM 15.1 °F -3.3 °F 7.0 °F 70% 29.39 in 10.0 mi ESE 23.0 mph 32.2 mph N/A   Overcast
3:53 AM 15.1 °F -3.3 °F 7.0 °F 70% 29.37 in 10.0 mi ESE 23.0 mph 31.1 mph N/A   Mostly Cloudy
4:53 AM 15.1 °F -4.7 °F 7.0 °F 70% 29.35 in 10.0 mi ESE 27.6 mph 34.5 mph N/A   Overcast
5:53 AM 15.1 °F -3.3 °F 6.1 °F 68% 29.34 in 10.0 mi ESE 23.0 mph 39.1 mph N/A   Overcast
6:53 AM 15.1 °F -3.3 °F 5.0 °F 64% 29.34 in 10.0 mi ESE 23.0 mph 32.2 mph N/A   Mostly Cloudy
7:53 AM 15.1 °F -4.0 °F 5.0 °F 64% 29.33 in 10.0 mi ESE 25.3 mph 34.5 mph N/A   Overcast
8:53 AM 15.1 °F -4.0 °F 5.0 °F 64% 29.34 in 10.0 mi ESE 25.3 mph 33.4 mph N/A   Overcast
9:53 AM 16.0 °F -3.2 °F 6.1 °F 65% 29.35 in 10.0 mi ESE 26.5 mph 34.5 mph N/A   Overcast
10:53 AM 16.0 °F -2.1 °F 6.1 °F 65% 29.36 in 10.0 mi ESE 23.0 mph 33.4 mph N/A   Overcast
11:53 AM 17.1 °F 0.1 °F 7.0 °F 65% 29.37 in 10.0 mi ESE 20.7 mph 28.8 mph N/A   Overcast
12:53 PM 17.1 °F -0.6 °F 8.1 °F 68% 29.38 in 10.0 mi ESE 23.0 mph 31.1 mph N/A   Overcast
1:53 PM 18.0 °F 0.9 °F 7.0 °F 62% 29.39 in 10.0 mi ESE 21.9 mph - N/A   Overcast
2:53 PM 18.0 °F 1.7 °F 8.1 °F 65% 29.39 in 10.0 mi ESE 19.6 mph 28.8 mph N/A   Overcast
3:53 PM 18.0 °F 3.1 °F 8.1 °F 65% 29.41 in 10.0 mi ESE 16.1 mph - N/A   Overcast
4:53 PM 18.0 °F 3.6 °F 8.1 °F 65% 29.43 in 10.0 mi ESE 15.0 mph - N/A   Overcast
5:53 PM 19.0 °F 6.1 °F 10.0 °F 68% 29.46 in 10.0 mi ESE 12.7 mph - N/A   Overcast
6:53 PM 19.0 °F 9.0 °F 6.1 °F 57% 29.50 in 10.0 mi East 8.1 mph - N/A   Overcast
7:30 PM 19.4 °F 8.6 °F 10.4 °F 68% 29.46 in 2.5 mi NNW 9.2 mph - 0.00 in Snow Light Snow
7:53 PM 18.0 °F 9.8 °F 12.9 °F 81% 29.58 in 3.0 mi North 5.8 mph - 0.00 in Snow Light Snow
8:35 PM 17.6 °F 8.2 °F 14.0 °F 86% 29.50 in 3.0 mi NNW 6.9 mph - 0.00 in Snow Light Snow
8:42 PM 17.6 °F 9.3 °F 14.0 °F 86% 29.51 in 2.0 mi North 5.8 mph - 0.00 in Snow Light Snow
8:53 PM 17.1 °F 10.0 °F 15.1 °F 92% 29.63 in 1.8 mi North 4.6 mph - 0.01 in Snow Light Snow
9:21 PM 17.6 °F 12.3 °F 15.8 °F 93% 29.54 in 0.8 mi SW 3.5 mph - 0.01 in Snow Light Snow
9:35 PM 17.6 °F 10.7 °F 15.8 °F 93% 29.54 in 1.0 mi South 4.6 mph - 0.01 in Snow Light Snow
9:53 PM 17.1 °F 8.7 °F 15.1 °F 92% 29.66 in 1.2 mi SSW 5.8 mph - 0.02 in Snow Light Snow
10:04 PM 17.6 °F 9.3 °F 15.8 °F 93% 29.56 in 2.5 mi SSW 5.8 mph - 0.00 in Snow Light Snow
10:12 PM 17.6 °F 9.3 °F 15.8 °F 93% 29.56 in 3.0 mi SSW 5.8 mph - 0.01 in Snow Light Snow
10:19 PM 17.6 °F 10.7 °F 15.8 °F 93% 29.57 in 4.0 mi SW 4.6 mph - 0.01 in Snow Light Snow
10:41 PM 17.6 °F 10.7 °F 15.8 °F 93% 29.58 in 1.8 mi West 4.6 mph - 0.01 in Snow Light Snow
10:53 PM 17.1 °F 10.0 °F 15.1 °F 92% 29.70 in 1.5 mi NW 4.6 mph - 0.01 in Snow Light Snow
11:00 PM 17.6 °F 8.2 °F 15.8 °F 93% 29.60 in 2.0 mi WNW 6.9 mph - 0.00 in Snow Light Snow
11:53 PM 17.1 °F 11.7 °F 15.1 °F 92% 29.73 in 2.5 mi NNW 3.5 mph - 0.00 in Snow Light Snow